FW2862 Weather Reports


time (UTC)temp
C
wind
direction
speed
KPH
gust
KPH
rain 1hr
cm
rain 24hr
cm
rain mn
cm
humidity
%
barometer
mb
20260504100447 9 223 0.0 0.0 0.00 0.00 0.00 77 1014.3
20260504100430 9 223 0.0 0.0 0.00 0.00 0.00 77 1014.3
20260504081924 9 223 0.0 0.0 0.00 0.00 0.00 76 1014.7
20260504081422 9 223 0.0 0.0 0.00 0.00 0.00 74 1014.7
20260504081143 9 223 0.0 0.0 0.00 0.00 0.00 75 1014.7
20260504080423 9 223 0.0 0.0 0.00 0.00 0.00 75 1014.7
20260504080148 9 223 0.0 0.0 0.00 0.00 0.00 72 1014.8
20260504060232 7 223 0.0 0.0 0.00 0.00 0.00 77 1015.1
20260504045556 7 223 0.0 0.0 0.00 0.00 0.00 66 1015.0
20260504045051 7 223 0.0 0.0 0.00 0.00 0.00 67 1015.0
20260504044758 7 223 0.0 0.0 0.00 0.00 0.00 66 1015.0
20260504044030 7 223 0.0 0.0 0.00 0.00 0.00 68 1014.9
20260504043744 7 223 0.0 0.0 0.00 0.00 0.00 67 1015.0
20260504043011 7 223 0.0 0.0 0.00 0.00 0.00 67 1015.0
20260504042503 7 223 0.0 0.0 0.00 0.00 0.00 67 1015.0
20260504041959 7 223 0.0 0.0 0.00 0.00 0.00 66 1015.0
20260504041445 7 223 0.0 1.6 0.00 0.00 0.00 67 1015.0
20260504040933 7 223 0.0 1.6 0.00 0.00 0.00 68 1015.0
20260504040432 7 223 0.0 1.6 0.00 0.00 0.00 69 1015.0
20260504035918 7 223 0.0 0.0 0.00 0.00 0.00 70 1015.0
20260504035416 7 223 0.0 0.0 0.00 0.00 0.00 72 1015.0
20260504034916 7 223 0.0 0.0 0.00 0.00 0.00 73 1015.0
20260504034417 7 223 0.0 0.0 0.00 0.00 0.00 71 1014.9
20260504033916 7 223 0.0 0.0 0.00 0.00 0.00 71 1014.9
20260504033413 7 223 0.0 0.0 0.00 0.00 0.00 72 1014.8
20260504032911 7 223 0.0 0.0 0.00 0.00 0.00 73 1014.8
20260504032409 7 223 0.0 0.0 0.00 0.00 0.00 73 1014.7
20260504031906 7 223 0.0 0.0 0.00 0.00 0.00 73 1014.7
20260504031405 7 223 0.0 0.0 0.00 0.00 0.00 73 1014.6
20260504030903 7 223 0.0 0.0 0.00 0.00 0.00 72 1014.6
20260504030401 7 223 0.0 0.0 0.00 0.00 0.00 71 1014.6
20260504025901 8 223 0.0 0.0 0.00 0.00 0.00 70 1014.5
20260504025400 8 223 0.0 0.0 0.00 0.00 0.00 70 1014.4
20260504024858 8 223 0.0 0.0 0.00 0.00 0.00 70 1014.4
20260504024357 8 223 0.0 0.0 0.00 0.00 0.00 68 1014.5
20260504024115 8 223 0.0 0.0 0.00 0.00 0.00 68 1014.5
20260504023357 8 223 0.0 0.0 0.00 0.00 0.00 68 1014.5
20260504022857 8 223 0.0 0.0 0.00 0.00 0.00 67 1014.5
20260504022356 8 223 0.0 0.0 0.00 0.00 0.00 67 1014.5
20260504021854 8 223 0.0 0.0 0.00 0.00 0.00 67 1014.5
20260504021353 9 223 0.0 0.0 0.00 0.00 0.00 66 1014.5
20260504020853 9 223 0.0 0.0 0.00 0.00 0.00 65 1014.5
20260504020618 9 223 0.0 0.0 0.00 0.00 0.00 65 1014.5
20260504020117 9 223 0.0 0.0 0.00 0.00 0.00 63 1014.4
20260504015614 9 223 0.0 0.0 0.00 0.00 0.00 63 1014.3
20260504015108 10 223 0.0 0.0 0.00 0.00 0.00 64 1014.3
20260504014351 10 223 0.0 0.0 0.00 0.00 0.00 61 1014.3
20260504013846 10 223 0.0 0.0 0.00 0.00 0.00 61 1014.3
20260504013819 10 223 0.0 0.0 0.00 0.00 0.00 58 1014.3
20260504013727 10 223 0.0 0.0 0.00 0.00 0.00 61 1014.3
20260504012328 10 223 0.0 0.0 0.00 0.00 0.00 57 1014.3
20260504011828 10 223 0.0 0.0 0.00 0.00 0.00 57 1014.2
20260504011329 10 223 0.0 0.0 0.00 0.00 0.00 60 1014.2
20260504010828 10 223 0.0 0.0 0.00 0.00 0.00 59 1014.1
20260504010329 11 223 0.0 0.0 0.00 0.00 0.00 57 1014.2
20260504010056 11 223 0.0 0.0 0.00 0.00 0.00 55 1014.2
20260504005329 11 223 0.0 0.0 0.00 0.00 0.00 54 1014.1
20260504004828 11 223 0.0 0.0 0.00 0.00 0.00 52 1014.0
20260504004603 11 223 0.0 0.0 0.00 0.00 0.00 52 1013.9
20260504003817 12 223 0.0 0.0 0.00 0.00 0.00 52 1013.9
20260504003304 12 223 0.0 0.0 0.00 0.00 0.00 54 1013.8
20260504002802 12 223 0.0 0.0 0.00 0.00 0.00 52 1013.8
20260504002304 12 223 0.0 0.0 0.00 0.00 0.00 52 1013.8
20260504001804 12 223 0.0 0.0 0.00 0.00 0.00 47 1013.7
20260504001525 13 223 0.0 0.0 0.00 0.00 0.00 47 1013.7
20260504000801 13 223 0.0 0.0 0.00 0.00 0.00 46 1013.7
20260504000301 13 223 0.0 0.0 0.00 0.00 0.00 44 1013.6
20260503235803 14 223 0.0 0.0 0.00 0.00 0.00 44 1013.6
20260503235524 14 223 0.0 1.6 0.00 0.00 0.00 44 1013.6
20260503234801 15 223 0.0 1.6 0.00 0.00 0.00 42 1013.5
20260503234303 15 64 0.0 0.0 0.00 0.00 0.00 41 1013.6
20260503234023 15 72 0.0 1.6 0.00 0.00 0.00 42 1013.5
20260503233532 15 72 0.0 1.6 0.00 0.00 0.00 41 1013.5
20260503232804 15 58 0.0 1.6 0.00 0.00 0.00 39 1013.4
20260503232305 15 58 0.0 3.2 0.00 0.00 0.00 35 1013.3
20260503231759 16 59 1.6 4.8 0.00 0.00 0.00 34 1013.3
20260503231246 16 297 1.6 4.8 0.00 0.00 0.00 33 1013.2
20260503230950 16 312 1.6 6.4 0.00 0.00 0.00 33 1013.3
20260503230217 16 342 1.6 6.4 0.00 0.00 0.00 32 1013.2
20260503225704 16 290 0.0 4.8 0.00 0.00 0.00 33 1013.2
20260503225151 16 355 0.0 4.8 0.00 0.00 0.00 33 1013.2
20260503224644 16 287 0.0 3.2 0.00 0.00 0.00 33 1013.2
20260503224138 16 287 0.0 3.2 0.00 0.00 0.00 34 1013.3
20260503223625 16 287 1.6 6.4 0.00 0.00 0.00 33 1013.3
20260503223114 16 275 1.6 8.0 0.00 0.00 0.00 33 1013.3
20260503222611 16 222 1.6 8.0 0.00 0.00 0.00 32 1013.3
20260503222057 16 313 1.6 6.4 0.00 0.00 0.00 33 1013.3
20260503221816 16 331 1.6 6.4 0.00 0.00 0.00 33 1013.3
20260503221307 16 286 1.6 6.4 0.00 0.00 0.00 31 1013.3
20260503220532 16 277 1.6 6.4 0.00 0.00 0.00 32 1013.3
20260503220028 16 53 1.6 8.0 0.00 0.00 0.00 33 1013.2
20260503215742 16 294 1.6 8.0 0.00 0.00 0.00 31 1013.3
20260503215007 16 274 1.6 8.0 0.00 0.00 0.00 33 1013.3
20260503214455 16 292 1.6 8.0 0.00 0.00 0.00 33 1013.4
20260503213950 16 299 1.6 6.4 0.00 0.00 0.00 31 1013.4
20260503213444 16 315 1.6 8.0 0.00 0.00 0.00 34 1013.4
20260503212938 16 5 3.2 9.7 0.00 0.00 0.00 31 1013.3
20260503212431 16 328 3.2 9.7 0.00 0.00 0.00 31 1013.4
20260503211918 16 292 1.6 9.7 0.00 0.00 0.00 31 1013.2
20260503211412 16 211 1.6 8.0 0.00 0.00 0.00 33 1013.2
20260503210905 16 27 1.6 8.0 0.00 0.00 0.00 33 1013.2
20260503210611 16 272 1.6 6.4 0.00 0.00 0.00 32 1013.3
20260503205846 16 332 1.6 9.7 0.00 0.00 0.00 32 1013.3
20260503205340 16 277 1.6 9.7 0.00 0.00 0.00 30 1013.5
20260503204825 16 355 1.6 11.3 0.00 0.00 0.00 32 1013.4
20260503204320 17 292 3.2 11.3 0.00 0.00 0.00 32 1013.4
20260503204246 16 301 3.2 14.5 0.00 0.00 0.00 31 1013.4
20260503203520 16 265 3.2 14.5 0.00 0.00 0.00 31 1013.5
20260503202745 16 192 3.2 9.7 0.00 0.00 0.00 30 1013.5
20260503202239 16 0 1.6 9.7 0.00 0.00 0.00 34 1013.6
20260503201735 16 32 3.2 8.0 0.00 0.00 0.00 32 1013.5
20260503201227 16 236 3.2 9.7 0.00 0.00 0.00 32 1013.7
20260503200722 16 254 3.2 14.5 0.00 0.00 0.00 33 1013.8
20260503200209 16 317 3.2 14.5 0.00 0.00 0.00 34 1013.9
20260503195701 16 158 3.2 12.9 0.00 0.00 0.00 33 1013.9
20260503195157 16 27 1.6 9.7 0.00 0.00 0.00 35 1013.9
20260503194643 16 320 1.6 8.0 0.00 0.00 0.00 37 1013.9
20260503194355 16 305 3.2 11.3 0.00 0.00 0.00 36 1014.1
20260503193630 16 252 3.2 12.9 0.00 0.00 0.00 38 1014.3
20260503193115 16 248 1.6 12.9 0.00 0.00 0.00 36 1014.3
20260503192610 15 321 1.6 6.4 0.00 0.00 0.00 37 1014.4
20260503192103 15 316 3.2 8.0 0.00 0.00 0.00 35 1014.3
20260503191550 15 263 3.2 8.0 0.00 0.00 0.00 37 1014.4
20260503191045 15 287 3.2 9.7 0.00 0.00 0.00 38 1014.5
20260503190759 15 340 3.2 9.7 0.00 0.00 0.00 37 1014.6
20260503190024 15 253 3.2 12.9 0.00 0.00 0.00 38 1014.6
20260503185518 15 348 4.8 12.9 0.00 0.00 0.00 37 1014.6
20260503185012 15 355 3.2 14.5 0.00 0.00 0.00 38 1014.6
20260503184458 15 295 3.2 14.5 0.00 0.00 0.00 37 1014.8
20260503183947 15 307 1.6 6.4 0.00 0.00 0.00 41 1014.7
20260503183441 14 315 1.6 8.0 0.00 0.00 0.00 42 1014.9
20260503182936 14 285 3.2 8.0 0.00 0.00 0.00 42 1015.1
20260503182429 13 303 3.2 19.3 0.00 0.00 0.00 39 1014.9
20260503181923 13 339 3.2 19.3 0.00 0.00 0.00 42 1015.0
20260503181420 13 30 1.6 11.3 0.00 0.00 0.00 41 1015.0
20260503180920 13 347 1.6 9.7 0.00 0.00 0.00 41 1014.9
20260503180418 13 329 3.2 9.7 0.00 0.00 0.00 41 1015.1
20260503175915 13 198 3.2 9.7 0.00 0.00 0.00 39 1015.1
20260503175413 13 208 3.2 8.0 0.00 0.00 0.00 40 1015.2
20260503174912 13 207 1.6 8.0 0.00 0.00 0.00 43 1015.2
20260503174411 12 52 1.6 6.4 0.00 0.00 0.00 42 1015.2
20260503174134 12 294 3.2 9.7 0.00 0.00 0.00 43 1015.3
20260503173410 12 224 3.2 9.7 0.00 0.00 0.00 41 1015.4
20260503172907 12 296 1.6 8.0 0.00 0.00 0.00 45 1015.4
20260503172407 12 307 3.2 9.7 0.00 0.00 0.00 41 1015.3
20260503172132 12 219 3.2 9.7 0.00 0.00 0.00 43 1015.4
20260503171406 12 241 3.2 9.7 0.00 0.00 0.00 44 1015.4
20260503170906 12 296 3.2 9.7 0.00 0.00 0.00 44 1015.4
20260503170403 12 355 3.2 9.7 0.00 0.00 0.00 44 1015.6
20260503150839 10 267 3.2 14.5 0.00 0.00 0.00 45 1016.2
20260503150338 10 193 3.2 9.7 0.00 0.00 0.00 45 1016.1
20260503140304 8 267 3.2 11.3 0.00 0.00 0.00 48 1016.3
20260503131135 7 285 3.2 9.7 0.00 0.00 0.00 56 1016.4
20260503130623 7 132 3.2 9.7 0.00 0.00 0.00 56 1016.3
20260503130115 7 219 3.2 12.9 0.00 0.00 0.00 58 1016.3
20260503110317 5 291 1.6 4.8 0.00 0.00 0.00 73 1015.4